{"data":{"norad_id":57142,"intl_designator":"2023-090AT","name":"STARLINK-5361","alt_names":[],"object_type":"PAYLOAD","status":"ACTIVE","operator":null,"country":"US","launch_date":"2023-06-23","launch_site_code":"AFETR","launch_vehicle":null,"mission":null,"orbit_class":"UNKNOWN","rcs_meters":null,"size_class":null,"mass_kg":null,"dimensions":null,"purposes":["comms"],"wikipedia_slug":null,"has_3d_model":false,"image_url":null,"decayed_at":null,"tle_current":{"epoch":"2026-05-25T04:11:58.818912Z","epoch_age_seconds":56602,"freshness":"FRESH","line1":"1 57142U 23090AT  26145.17498633 -.00000235  00000+0  99916-6 0  9992","line2":"2 57142  43.0026 191.1488 0001441 310.3851  49.6875 15.27578086162051","mean_motion":15.27578086,"eccentricity":0.0001441,"inclination_deg":43.0026,"raan_deg":191.1488,"arg_perigee_deg":310.3851,"mean_anomaly_deg":49.6875,"bstar":9.9916e-7,"rev_number":16205,"period_min":94.266866826473,"perigee_km":482.06612950789,"apogee_km":484.0435249925,"semimajor_km":6861.1918272502,"source":"CELESTRAK","updated_at":"2026-05-25T13:38:18.247812Z"}}}